Flag for Greece Weather past 2 weeks in Thessaloniki, Greece

Now
86 °F

Scattered clouds.


Feels Like: 93 °F
Forecast: 66 / 92 °F
Wind: 10 mph from Northwest

Location: Thessaloniki Airport

Current Time: Jul 28, 2014 at 4:44:08 PM

Latest Report: Jul 28, 2014 at 3:50 PM


Visibility: N/A

Pressure: 29.80 "Hg

Humidity: 66%

Dew point: 73 °F

Location of ThessalonikiLocation

Historic Weather in Thessaloniki — Graph

°F

Thessaloniki temperature yesterday

Maximum temperature yesterday: 93 °F (at 1:50 PM)
Minimum temperature yesterday: 70 °F (at 5:20 AM)
Average temperature yesterday: 81 °F

Past Weeks' High & Low Weather Summary

 TemperatureHumidityPressure
High93 °F (Jul 27, 1:50 PM)94% (Jul 15, 6:20 AM)29.95 "Hg (Jul 15, 6:20 AM)
Low64 °F (Jul 15, 6:20 AM)24% (Jul 13, 3:20 PM)29.68 "Hg (Jul 22, 4:20 PM)
Average79 °F59%29.84 "Hg
* Reported Jul 13 3:20 PM — Jul 28 3:20 PM, Thessaloniki, Weather by CustomWeather, © 2014

Note: Actual official high and low records may vary slightly from our data, if they occured in-between our weather recording intervals... More about our weather records

Advertising

Thessaloniki weather history for previous 24 hours

 ConditionsComfort  
Time TempWeatherWind HumidityBarometerVisibility
3:20 PM
Jul 28
86 °FScattered clouds.10 mph62%29.80 "HgN/A
2:50 PM84 °FScattered clouds.9 mph62%29.80 "HgN/A
2:20 PM84 °FScattered clouds.8 mph62%29.80 "HgN/A
1:50 PM86 °FScattered clouds.10 mph59%29.83 "HgN/A
1:20 PM84 °FPassing clouds.10 mph58%29.83 "HgN/A
12:50 PM84 °FPassing clouds.9 mph58%29.83 "HgN/A
12:20 PM84 °FPassing clouds.9 mph58%29.83 "HgN/A
11:50 AM84 °FScattered clouds.10 mph55%29.86 "HgN/A
11:20 AM84 °FScattered clouds.12 mph58%29.86 "HgN/A
10:50 AM86 °FScattered clouds.9 mph52%29.86 "HgN/A
10:20 AM86 °FScattered clouds.3 mph46%29.86 "HgN/A
9:50 AM84 °FSunny.5 mph51%29.83 "Hg10 mi
9:20 AM81 °FSunny.6 mph58%29.86 "Hg10 mi
8:50 AM79 °FSunny.5 mph65%29.86 "Hg10 mi
8:20 AM77 °FSunny.5 mph65%29.86 "Hg10 mi
7:50 AM73 °FSunny.6 mph69%29.86 "Hg10 mi
7:20 AM72 °FSunny.5 mph73%29.86 "Hg10 mi
6:50 AM70 °FClear.No wind78%29.86 "Hg10 mi
6:20 AM70 °FClear.5 mph78%29.86 "Hg10 mi
5:50 AM70 °FClear.5 mph78%29.86 "Hg10 mi
4:50 AM72 °FClear.5 mph73%29.86 "Hg10 mi
4:20 AM72 °FClear.No wind73%29.86 "Hg10 mi
3:50 AM72 °FClear.No wind73%29.86 "Hg10 mi
3:20 AM73 °FClear.3 mph74%29.86 "Hg10 mi
2:50 AM73 °FClear.3 mph69%29.86 "Hg10 mi
1:50 AM75 °FClear.5 mph69%29.86 "Hg10 mi
1:20 AM75 °FPassing clouds.No wind69%29.86 "HgN/A
12:50 AM77 °FPassing clouds.No wind65%29.89 "HgN/A
12:20 AM77 °FPassing clouds.No wind65%29.89 "HgN/A
11:50 PM
Jul 27
79 °FPassing clouds.No wind61%29.89 "HgN/A
11:20 PM81 °FPassing clouds.5 mph58%29.89 "HgN/A
10:50 PM81 °FPassing clouds.5 mph58%29.89 "HgN/A
10:20 PM81 °FPassing clouds.3 mph54%29.89 "HgN/A
9:50 PM82 °FPassing clouds.No wind51%29.86 "HgN/A
9:20 PM84 °FPassing clouds.5 mph45%29.86 "HgN/A
8:50 PM86 °FPassing clouds.7 mph43%29.86 "HgN/A
8:20 PM86 °FPassing clouds.8 mph40%29.86 "HgN/A
7:50 PM88 °FPassing clouds.14 mph38%29.83 "HgN/A
7:20 PM90 °FPassing clouds.14 mph41%29.83 "HgN/A
6:50 PM90 °FPassing clouds.15 mph43%29.83 "HgN/A
6:20 PM90 °FPassing clouds.16 mph43%29.83 "HgN/A
5:50 PM90 °FPassing clouds.16 mph41%29.83 "HgN/A
4:50 PM91 °FPassing clouds.16 mph38%29.83 "HgN/A
4:20 PM91 °FScattered clouds.16 mph38%29.86 "HgN/A
Weather by CustomWeather, © 2014

See weather overviewHow to use our weather pages